Regional Weather Roundup
Issued by NWS State College, PA

Home | Current Version | Previous Version | Text Only | Print | Product List | Glossary On
Versions: 1 2 3 4 5 6 7 8 9 10 11 12 13 14 15 16 17 18 19 20 21 22 23 24 25 26 27 28 29 30 31 32 33 34 35 36 37 38 39 40 41 42 43 44 45 46 47 48 49 50
000
ASUS41 KCTP 020810
RWRCTP

REGIONAL WEATHER ROUNDUP
NATIONAL WEATHER SERVICE STATE COLLEGE PA
400 AM EDT THU OCT 02 2014

Note: "fair" indicates few or no clouds below 12,000 feet with no
significant weather and/or obstructions to visibility.

* = STATION THAT DOES NOT REPORT PRECIPITATION /E.G. RAIN...SNOW...ETC/
    THUNDER OR FOG.

PAZ002>004-007>009-013>016-020>023-029>032-020900-
WESTERN PENNSYLVANIA

CITY           SKY/WX    TMP DP  RH WIND       PRES   REMARKS
ERIE           CLEAR     58  53  84 S7        30.05S
MEADVILLE      CLEAR     54  52  93 CALM      30.07S FOG
FRANKLIN*      CLOUDY    48  46  93 CALM      30.09S VSB 1/4
NEW CASTLE     FOG       49  49 100 CALM      30.08S VSB<1/4
BEAVER COUNTY  NOT AVBL
BUTLER*        PTCLDY    50  48  93 CALM      30.09R
PITTSBURGH INT FOG       52  52 100 CALM      30.06S VSB 1/16
PITTSBURGH     FOG       53  50  89 CALM      30.06R VSB<1/4
INDIANA*       MOCLDY    54  52  94 CALM      30.12S
LATROBE        MOCLDY    52  52 100 CALM      30.08S FOG
WASHINGTON CO* CLOUDY    46  46 100 CALM      30.08S VSB 1/4
$$

PAZ004>006-010>012-017>019-024>028-033>037-041-042-045-046-049>053-020900-
CENTRAL PENNSYLVANIA

CITY           SKY/WX    TMP DP  RH WIND       PRES   REMARKS
BRADFORD       FOG       47  45  93 CALM      30.11R VSB 1/4
DUBOIS         CLEAR     53  53 100 SE5       30.09S
CLEARFIELD     FOG       52  52 100 CALM      30.10F VSB 1/4
JOHNSTOWN      CLOUDY    56  54  93 SE3       30.10S
ALTOONA        FOG       52  52 100 E3        30.10F VSB 1/4
STATE COLLEGE  FOG       52  52  99 CALM      30.10S VSB<1/4
WILLIAMSPORT   CLOUDY    57  54  89 NE3       30.10R
SELINSGROVE    CLOUDY    57  56  96 CALM      30.11S FOG
FT INDIANTOWN  FOG       54  54 100 NE2       30.10S VSB 3/4
CAPITAL CITY   PTCLDY    56  55  97 CALM      30.10S FOG
HARRISBURG     PTCLDY    58  56  93 CALM      30.09S FOG
YORK           FOG       51  50  96 CALM      30.09S VSB 1/2
$$

PAZ038>040-043-044-047-048-054-055-060>062-067>071-020900-
EASTERN PENNSYLVANIA

CITY           SKY/WX    TMP DP  RH WIND       PRES   REMARKS
SCRANTON       CLOUDY    57  54  89 CALM      30.11S
MOUNT POCONO   CLOUDY    56  54  93 E7        30.12S FOG
ALLENTOWN      CLOUDY    62  56  80 NE8       30.10S
QUAKERTOWN*    CLOUDY    59  57  94 N3        30.11R
READING        CLEAR     56  53  90 NW3       30.09R
LANCASTER      CLOUDY    57  56  96 CALM      30.10S FOG
COATESVILLE    SUNNY     55  55 100 CALM      30.10S
POTTSTOWN      PTCLDY    55  53  93 CALM      30.10S
BLUE BELL      CLOUDY    63  57  82 CALM      30.08S
DOYLESTOWN     CLOUDY    59  57  93 N5        30.09R
WILLOW GROVE   NOT AVBL
NORTH PHILA    CLOUDY    63  55  75 NE7       30.10R
PHILADELPHIA   CLOUDY    64  56  75 NE3       30.08S
$$


USA.gov is the U.S. government's official web portal to all federal, state and local government web resources and services.